Miscellaneous Local Product
Issued by NWS Hastings, NE

Home | Current Version | Previous Version | Text Only | Print | Product List | Glossary Off
Versions: 1 2 3 4 5 6 7 8 9 10 11 12 13 14 15 16 17 18 19 20 21 22 23 24 25 26 27 28 29 30 31 32 33 34 35 36 37 38 39 40 41 42 43 44 45 46 47 48 49 50

000
AXUS43 KGID 011802
MISGRI

GID CWA HOURLY WEATHER ROUNDUP
NATIONAL WEATHER SERVICE HASTINGS NE
100 PM CDT WED JUL 01 2015

NOTE: "FAIR" INDICATES FEW OR NO CLOUDS BELOW 12,000 FEET WITH NO
SIGNIFICANT WEATHER AND/OR OBSTRUCTIONS TO VISIBILITY.

...SOUTH CENTRAL NEBRASKA...

CITY           SKY/WX    TMP DP  RH WIND       PRES   REMARKS
GRAND ISLAND   CLOUDY    76  66  71 NE9       29.90S
HASTINGS       FAIR      81  69  67 N12       29.89R
KEARNEY        FAIR      79  66  65 NE9       29.90S
ORD            CLOUDY    75  65  70 NE8       29.92R
YORK           PTSUNNY   77  68  73 E7        29.88R
AURORA         CLOUDY    77  68  73 N7        29.89R
LEXINGTON      SUNNY     86  68  55 NE10      29.92R
HOLDREGE       FAIR      81  65  59 NE10      29.91R
HEBRON         FAIR      83  66  57 E7        29.83S

...NEBRASKA PANHANDLE...

CITY           SKY/WX    TMP DP  RH WIND       PRES   REMARKS
CHADRON        SUNNY     89  57  33 N8        30.00S
ALLIANCE       SUNNY     88  57  34 N13       30.03S
SCOTTSBLUFF    SUNNY     91  47  21 E3        30.04S
SIDNEY         SUNNY     89  59  36 N13       30.07S

...WESTERN AND NORTH CENTRAL NEBRASKA...

CITY           SKY/WX    TMP DP  RH WIND       PRES   REMARKS
VALENTINE      SUNNY     83  69  62 N12       29.93S
AINSWORTH      PTSUNNY   80  68  65 E3        29.94S
ONEILL         CLOUDY    74  66  75 SE7       29.93S
BROKEN BOW     SUNNY     83  68  60 CALM      29.93R
IMPERIAL       SUNNY     92  60  34 N10G20    29.98R HX  91
NORTH PLATTE   SUNNY     92  63  38 N12G20    29.93S HX  93
MCCOOK         SUNNY     94  60  32 NE15      29.91S HX  94

...EASTERN NEBRASKA...

CITY           SKY/WX    TMP DP  RH WIND       PRES   REMARKS
NORFOLK        CLOUDY    79  68  69 E12       29.90S
SO SIOUX CITY  PTSUNNY   76  67  73 SE8       29.90S
TEKAMAH        FAIR      80  69  69 E10       29.88F
COLUMBUS       FAIR     N/A N/A N/A MISG        N/A
ALBION         CLOUDY    78  65  66 E7        29.91R
OMAHA EPPLEY   FAIR      81  69  67 SE13      29.87F
MILLARD        FAIR      80  69  68 SE9       29.86F
LINCOLN        PTSUNNY   82  69  64 E8        29.86S
NEBRASKA CITY  FAIR      81  67  61 SE9       29.85S
BEATRICE       FAIR      80  71  74 E13G20    29.83F
FALLS CITY     PTSUNNY   80  71  74 E12       29.84S

...NORTHERN KANSAS...

CITY           SKY/WX    TMP DP  RH WIND       PRES   REMARKS
GOODLAND       SUNNY     92  55  28 NE15G23   30.00S HX  90
HILL CITY      LGT RAIN  92  64  39 NE16      29.89R HX  93
NORTON         CLEAR     88  63  42 NE13      29.90R
PHILLIPSBURG   SUNNY     91  64  40 N16G22    29.86S HX  93
SMITH CENTER   SUNNY     88  64  45 N15G21    29.85R
HAYS           FAIR      93  61  33 N18G25    29.84S HX  93
RUSSELL        FAIR      96  58  27 N15G24    29.80S HX  95
CONCORDIA      FAIR      89  66  46 NE10      29.80S HX  91
SALINA         FAIR      90  62  39 W5        29.79R HX  90
TOPEKA         FAIR      86  72  62 SE13      29.81F HX  92



USA.gov is the U.S. government's official web portal to all federal, state and local government web resources and services.